Vorticity
nan nan nan nan nan nan nan nan nan nan nan nan nan nan nan nan nan nan nan nan nan nan nan nan nan nan nan nan nan nan nan nan nan nan nan nan nan nan nan nan nan nan nan
nan 5 0 5 8 7 6 6 7 6 7 3 5 4 4 6 5 5 5 5 6 6 6 5 5 5 5 4 3 5 5 5 4 2 2 1 4 6 6 9 9 6 nan
nan 7 4 4 5 9 10 7 5 6 6 5 6 5 4 5 5 4 6 5 7 5 5 4 6 5 3 2 4 5 4 4 4 -2 -2 3 4 5 5 6 6 7 nan
nan 9 6 7 7 9 9 7 6 7 7 4 4 5 6 5 5 5 6 5 6 6 6 5 5 4 4 2 4 4 3 3 1 -1 2 4 3 3 4 5 6 5 nan
nan 10 21 9 5 8 9 7 7 5 5 7 7 6 6 6 6 6 3 7 5 6 6 5 5 4 3 3 3 2 1 2 1 9 7 5 5 5 5 5 3 5 nan
nan 5 14 12 6 8 7 7 7 7 6 7 6 6 8 6 6 5 6 6 5 6 6 5 5 3 4 5 2 4 4 3 13 10 5 6 6 6 6 7 7 6 nan
nan 10 -2 10 14 9 11 2 5 7 6 6 7 7 7 7 5 6 6 4 6 6 7 5 5 4 4 5 3 -0 1 8 20 6 5 7 7 6 6 5 5 6 nan
nan 7 8 10 7 0 3 17 11 6 7 6 6 7 6 5 5 5 5 6 6 6 6 6 5 5 5 3 3 4 4 7 8 5 6 6 9 7 5 5 5 5 nan
nan 7 8 9 8 7 4 18 7 12 7 6 6 6 5 4 6 4 5 6 5 6 6 6 6 5 5 3 2 1 3 12 12 6 6 7 8 6 6 5 6 5 nan
nan 9 8 5 3 15 13 10 21 14 7 5 6 6 5 3 3 5 6 6 6 5 5 5 5 6 5 3 3 4 4 16 10 4 4 10 9 6 5 6 5 5 nan
nan 8 8 6 4 13 14 8 18 21 11 0 2 4 1 5 7 3 6 7 6 5 5 6 5 5 2 5 7 3 6 15 5 6 9 10 6 6 5 5 5 5 nan
nan 7 8 9 10 8 10 6 6 11 14 8 7 3 3 6 6 6 4 5 4 4 2 3 4 4 3 2 4 8 14 4 7 8 10 10 7 6 6 5 5 5 nan
nan 9 9 8 9 7 5 3 9 3 8 12 9 2 5 6 5 4 3 4 5 2 2 4 2 2 6 5 4 10 10 7 5 9 9 8 7 5 5 5 5 5 nan
nan 10 11 9 8 5 3 8 10 7 6 12 11 5 2 6 8 5 6 7 5 5 6 3 4 8 5 6 5 8 5 8 8 9 8 7 7 6 5 5 4 4 nan
nan 11 11 9 9 9 5 8 11 8 8 11 9 7 5 7 7 8 6 8 8 8 5 5 6 8 6 5 9 5 6 7 6 8 10 8 7 6 5 5 5 4 nan
nan 9 8 8 9 9 10 8 7 8 7 9 8 10 7 5 7 8 8 7 8 9 7 6 8 6 7 7 7 7 7 7 7 5 9 8 7 8 7 5 5 5 nan
nan 8 8 9 7 7 8 8 8 8 7 7 8 11 8 7 7 6 8 7 8 9 9 6 7 7 8 7 7 7 7 6 9 6 6 8 7 6 8 8 7 5 nan
nan 8 8 6 8 9 8 7 6 8 8 8 8 8 8 11 8 4 7 10 10 8 8 9 6 7 8 7 7 7 7 8 7 8 5 7 8 6 8 10 8 7 nan
nan 9 6 7 10 7 9 11 8 8 7 7 10 10 8 5 6 6 9 9 9 8 8 8 8 7 7 8 7 7 7 8 8 7 7 7 7 6 9 10 6 7 nan
nan 9 6 6 11 8 8 12 13 9 10 8 9 12 9 6 5 3 6 11 10 7 8 8 8 8 7 8 7 8 7 8 8 7 9 7 6 7 8 7 7 9 nan
nan 8 8 8 7 7 8 10 15 17 11 12 13 11 7 8 8 7 9 7 8 9 7 8 9 9 7 8 7 8 7 8 6 7 9 8 9 7 5 5 7 8 nan
nan 6 6 9 6 6 7 9 11 19 19 10 12 11 10 9 6 3 9 11 7 7 9 8 8 7 8 8 7 6 8 8 9 9 7 8 8 9 9 7 7 6 nan
nan 7 6 9 7 6 6 7 7 10 14 11 10 10 11 10 5 7 6 7 9 7 8 8 9 7 5 5 7 5 6 11 12 14 9 8 8 7 9 10 8 7 nan
nan 7 8 9 7 7 4 6 7 7 7 9 9 12 13 10 7 8 6 4 8 7 8 8 8 7 7 7 7 5 4 7 9 13 12 9 9 9 7 8 11 9 nan
nan 7 9 10 9 6 7 7 6 8 8 10 9 9 8 9 11 8 7 8 8 7 8 9 8 5 6 8 7 8 8 7 6 4 9 13 13 10 10 10 6 11 nan
nan nan nan nan nan nan nan nan nan nan nan nan nan nan nan nan nan nan nan nan nan nan nan nan nan nan nan nan nan nan nan nan nan nan nan nan nan nan nan nan nan nan nan
CAPE
1202 1785 1822 2003 2135 1907 1687 1632 1625 1594 1654 1668 1679 1738 1675 1732 1584 1401 1178 942 864 803 301 86 289 124 11 7 2 100 33 18 24 29 17 12 2 4 32 172 67 32 35
1348 2000 1566 1925 2106 2170 1906 1820 1786 1743 1854 1860 1808 1815 1729 1706 1597 1469 1243 1134 1062 784 198 109 29 20 20 13 42 53 67 53 15 18 21 31 46 15 14 32 44 18 20
1709 1716 1583 1925 2060 2305 2188 2049 2020 2054 2121 2042 1920 1978 1833 1814 1681 1498 1390 1212 1027 699 144 74 21 21 20 8 43 55 17 10 107 48 73 27 31 27 20 38 44 20 18
1828 1818 1962 1828 2070 2349 2264 2105 2114 2304 2258 2007 2002 2113 2063 1871 1803 1704 1377 1070 855 803 178 143 20 19 17 13 9 3 0 0 4 34 23 30 38 43 30 16 11 7 11
1274 1692 1888 1766 1966 2335 2284 2138 2137 2212 2104 1933 2006 2203 2238 2006 1941 1625 1207 892 798 643 101 36 18 17 12 1 0 0 0 0 0 29 21 29 18 16 12 6 5 10 27
1069 1372 1335 1618 1825 2112 2273 2143 2181 2101 1798 1853 1958 2184 2233 2022 1704 1415 918 760 697 542 170 10 9 10 4 0 0 0 0 0 11 13 10 20 21 22 4 0 0 8 28
1013 1488 2168 543 1592 1839 1900 1770 2022 1924 1715 1828 1929 2031 1946 1506 1508 1052 728 592 494 351 190 7 7 5 1 0 0 0 0 0 0 1 4 5 13 13 6 10 12 11 12
1134 1623 1516 350 668 345 230 141 1268 1638 1572 1622 1745 1770 1735 1417 1168 863 709 520 304 206 118 12 9 2 0 0 0 0 0 0 2 2 2 2 14 13 12 11 12 13 15
1207 1138 1101 426 173 52 170 40 87 1278 1362 1430 1475 1402 1239 944 759 838 723 461 245 152 59 4 3 0 0 0 0 0 0 0 6 1 0 3 19 13 14 11 12 13 14
906 777 832 45 3 146 169 10 3 763 941 1047 1086 934 742 624 662 652 678 490 257 140 64 2 0 0 0 0 0 0 0 0 3 1 1 4 14 14 10 9 9 10 10
787 638 677 330 27 16 119 113 190 422 532 771 728 560 458 941 735 660 457 432 346 90 46 24 2 0 0 0 0 0 0 12 12 2 0 21 12 11 12 6 9 8 6
1136 496 595 384 27 11 150 1 89 10 161 820 1227 1053 882 928 668 469 386 331 213 48 34 15 0 0 0 0 0 0 2 3 15 3 1 20 15 13 10 8 8 7 5
674 608 258 404 110 15 103 278 574 14 27 207 990 1081 525 918 832 928 643 460 248 22 0 0 0 0 0 0 0 6 0 0 18 6 2 21 16 16 13 10 7 4 5
491 381 403 415 417 401 374 754 684 208 1 183 1258 909 981 903 656 954 636 284 287 71 0 0 0 6 3 0 0 0 0 10 14 4 8 21 24 13 11 11 9 7 4
373 275 287 351 493 554 431 810 713 331 579 218 452 926 660 475 551 275 312 318 204 172 34 41 0 51 43 2 0 0 1 3 2 2 5 11 23 23 12 12 9 7 6
359 280 156 180 194 309 513 529 663 168 222 204 207 513 858 847 497 108 282 367 312 267 125 98 92 62 43 1 0 0 0 0 6 9 6 7 15 24 22 13 10 7 5
231 168 49 48 130 148 161 274 512 502 383 355 81 218 630 251 255 146 211 340 220 288 431 229 160 36 2 0 0 0 0 2 13 21 7 13 6 11 18 27 25 7 2
268 80 32 3 13 57 66 171 299 108 398 149 130 85 70 64 175 139 99 103 243 232 297 202 115 5 0 0 0 0 0 4 6 13 15 26 12 11 8 21 19 8 1
118 8 5 3 22 35 17 18 112 152 128 169 112 81 75 7 17 9 32 56 240 237 224 178 70 23 0 0 0 0 0 0 0 1 14 31 23 14 7 5 6 7 1
22 9 12 2 10 7 16 23 22 15 89 79 118 27 6 1 11 28 16 84 168 184 181 74 52 10 0 0 0 0 0 0 0 0 2 10 10 13 1 15 0 1 5
12 9 6 13 12 18 7 15 20 18 50 58 89 19 0 0 19 50 42 102 176 74 35 40 61 129 19 24 0 0 0 0 0 0 0 2 2 0 4 1 7 1 0
7 9 2 5 12 10 7 5 10 2 13 29 11 1 0 0 6 47 86 129 144 82 84 115 160 61 34 8 4 0 0 0 0 0 0 0 1 0 0 0 0 1 0
2 6 5 5 17 7 1 2 2 0 1 1 2 3 4 0 4 28 66 147 161 161 149 174 177 126 54 7 38 11 0 0 0 0 0 0 0 0 0 0 0 0 0
40 11 16 8 3 3 1 0 2 0 0 3 2 5 7 8 32 67 88 172 208 193 176 157 128 156 148 35 1 3 26 14 83 36 0 0 0 0 0 0 0 0 0
138 10 11 11 9 13 1 5 0 3 3 3 5 8 16 57 65 85 121 190 252 180 223 231 175 151 125 139 31 3 0 1 32 3 28 0 0 0 0 0 0 2 0
67 2 0 6 2 10 4 4 2 0 3 11 13 6 9 23 48 82 94 179 197 217 218 209 172 117 163 223 190 150 10 18 6 9 4 4 0 0 0 0 0 0 0